Terminal Aerodrome Forecast
Issued by NWS

Home | Current Version | Previous Version | Text Only | Print | Product List | Glossary On
Versions: 1 2 3 4 5 6 7 8 9 10 11 12 13 14 15
000
FTUS43 KDLH 281700
TAFBRD
TAF
KBRD 281730Z 2818/2918 34012KT P6SM FEW015 SCT050
     FM290200 35010KT P6SM SKC=

USA.gov is the U.S. government's official web portal to all federal, state and local government web resources and services.